Weather History for YBHM - September, 2013

Change the Weather History Date:

Sunday, September 1, 2013

  Actual Average Record
Temperature  
Mean Temperature 73 °F -  
Max Temperature 77 °F - - ()
Min Temperature 69 °F - - ()
Cooling Degree Days 8    
Growing Degree Days 23 (Base 50)    
Moisture  
Dew Point 64 °F    
Average Humidity 76    
Maximum Humidity 88    
Minimum Humidity 56    
Precipitation  
Precipitation 0.00 in - - ()
Sea Level Pressure  
Sea Level Pressure 30.18 in    
Wind  
Wind Speed 18 mph ()    
Max Wind Speed 23 mph    
Max Gust Speed -    
T = Trace of Precipitation, MM = Missing Value Source: Averaged Metar Reports

Daily Weather History Graph

Daily Weather History Graph

Search for Another Location

Airport or City:

Trip Planner

Search our weather history database for the weather conditions in past years. The results will help you decide how hot, cold, wet, or windy it might be!

Date:

Astronomy

Sep. 01, 2013 Rise Set
Actual Time 6:13 AM AEST 5:55 PM AEST
Civil Twilight 5:51 AM AEST 6:17 PM AEST
Nautical Twilight 5:25 AM AEST 6:43 PM AEST
Astronomical Twilight 4:59 AM AEST 7:09 PM AEST
Moon 2:52 AM AEST (9/1) 2:19 PM AEST (9/1)
Length of Visible Light 12h 26m
Length of Day
11h 42m
Waning Crescent, 18% of the Moon is Illuminated
Sep 1
Waning Crescent
Sep 5
New
Sep 13
First Quarter
Sep 19
Full
Sep 27
Last Quarter

Hourly Weather History & Observations

Time (AEST) Temp. Dew Point Humidity Pressure Visibility Wind Dir Wind Speed Gust Speed Precip Events Conditions
12:00 AM 71 °F 63 °F 70% 30.17 in - ESE 19.6 mph - -  
12:00 AM 71.6 °F 62.6 °F 73% 30.18 in - ESE 19.6 mph - N/A   Unknown
12:30 AM 69.8 °F 62.6 °F 78% 30.18 in - East 23.0 mph - N/A   Unknown
1:00 AM 69.8 °F 62.6 °F 78% 30.15 in - East 20.7 mph - N/A   Unknown
1:30 AM 69.8 °F 62.6 °F 78% 30.15 in - ESE 20.7 mph - N/A   Unknown
2:00 AM 69.8 °F 64.4 °F 83% 30.15 in - ESE 20.7 mph - N/A   Unknown
2:30 AM 69.8 °F 62.6 °F 78% 30.15 in - ESE 23.0 mph - N/A   Unknown
3:00 AM 70 °F 62 °F 69% 30.15 in - East 21.9 mph - -  
3:00 AM 69.8 °F 62.6 °F 78% 30.15 in - East 21.9 mph - N/A   Unknown
3:30 AM 69.8 °F 62.6 °F 78% 30.15 in - East 19.6 mph - N/A   Unknown
4:00 AM 69.8 °F 62.6 °F 78% 30.15 in - ESE 19.6 mph - N/A   Unknown
4:30 AM 69.8 °F 64.4 °F 83% 30.15 in - ESE 18.4 mph - N/A   Unknown
5:00 AM 69.8 °F 62.6 °F 78% 30.15 in - ESE 20.7 mph - N/A   Unknown
5:30 AM 69.8 °F 62.6 °F 78% 30.15 in - ESE 21.9 mph - N/A   Unknown
6:00 AM 71 °F 62 °F 67% 30.17 in - ESE 19.6 mph - -  
6:00 AM 69.8 °F 62.6 °F 78% 30.18 in - ESE 19.6 mph - N/A   Unknown
6:30 AM 69.8 °F 62.6 °F 78% 30.18 in - ESE 18.4 mph - N/A   Unknown
7:00 AM 71.6 °F 62.6 °F 73% 30.18 in - ESE 17.3 mph - N/A   Unknown
7:30 AM 71.6 °F 62.6 °F 73% 30.21 in - ESE 17.3 mph - N/A   Unknown
8:00 AM 73.4 °F 64.4 °F 73% 30.21 in - ESE 17.3 mph - N/A   Unknown
8:30 AM 73.4 °F 62.6 °F 69% 30.21 in - ESE 18.4 mph - N/A   Unknown
9:00 AM 74 °F 62 °F 57% 30.22 in - ESE 19.6 mph - -  
9:00 AM 73.4 °F 62.6 °F 69% 30.21 in - ESE 19.6 mph - N/A   Unknown
9:30 AM 73.4 °F 62.6 °F 69% 30.21 in - ESE 18.4 mph - N/A   Unknown
10:00 AM 75.2 °F 62.6 °F 65% 30.21 in - ESE 16.1 mph - N/A   Unknown
10:30 AM 75.2 °F 64.4 °F 69% 30.21 in - ESE 15.0 mph - N/A   Unknown
11:00 AM 75.2 °F 62.6 °F 65% 30.21 in - ESE 16.1 mph - N/A   Unknown
11:30 AM 75.2 °F 62.6 °F 65% 30.18 in - ESE 17.3 mph - N/A   Unknown
12:00 PM 76 °F 63 °F 56% 30.19 in - ESE 17.3 mph - -  
12:00 PM 75.2 °F 62.6 °F 65% 30.18 in - ESE 17.3 mph - N/A   Unknown
12:30 PM 77.0 °F 64.4 °F 65% 30.18 in - SE 18.4 mph - N/A   Unknown
1:00 PM 75.2 °F 64.4 °F 69% 30.15 in - SE 17.3 mph - N/A   Unknown
1:30 PM 75.2 °F 64.4 °F 69% 30.15 in - SE 18.4 mph - N/A   Unknown
2:00 PM 75.2 °F 64.4 °F 69% 30.15 in - SE 18.4 mph - N/A   Unknown
2:30 PM 75.2 °F 62.6 °F 65% 30.15 in - SE 18.4 mph - N/A   Unknown
3:00 PM 73 °F 64 °F 66% 30.14 in - SE 19.6 mph - -  
3:00 PM 73.4 °F 64.4 °F 73% 30.15 in - SE 19.6 mph - N/A   Unknown
3:30 PM 73.4 °F 64.4 °F 73% 30.15 in - SE 18.4 mph - N/A   Unknown
4:00 PM 73.4 °F 64.4 °F 73% 30.15 in - SE 18.4 mph - N/A   Unknown
4:30 PM 71.6 °F 64.4 °F 78% 30.15 in - SE 19.6 mph - N/A   Unknown
5:00 PM 71.6 °F 64.4 °F 78% 30.15 in - SE 20.7 mph - N/A   Unknown
5:30 PM 71.6 °F 64.4 °F 78% 30.15 in - SE 18.4 mph - N/A   Unknown
6:00 PM 70 °F 64 °F 77% 30.17 in - SE 18.4 mph - -  
6:00 PM 69.8 °F 64.4 °F 83% 30.15 in - SE 18.4 mph - N/A   Unknown
6:30 PM 69.8 °F 64.4 °F 83% 30.18 in - SE 18.4 mph - N/A   Unknown
7:00 PM 69.8 °F 64.4 °F 83% 30.18 in - SE 19.6 mph - N/A   Unknown
7:30 PM 69.8 °F 66.2 °F 88% 30.18 in - SE 19.6 mph - N/A   Unknown
8:00 PM 69.8 °F 66.2 °F 88% 30.21 in - SE 19.6 mph - N/A   Unknown
8:30 PM 69.8 °F 66.2 °F 88% 30.21 in - SE 19.6 mph - N/A   Unknown
9:00 PM 70 °F 66 °F 84% 30.22 in - SE 18.4 mph - -  
9:00 PM 69.8 °F 66.2 °F 88% 30.21 in - SE 18.4 mph - N/A   Unknown
9:30 PM 69.8 °F 66.2 °F 88% 30.21 in - SE 18.4 mph - N/A   Unknown
10:00 PM 69.8 °F 66.2 °F 88% 30.21 in - ESE 18.4 mph - N/A   Unknown
10:30 PM 69.8 °F 66.2 °F 88% 30.21 in - ESE 16.1 mph - N/A   Unknown
11:00 PM 69.8 °F 66.2 °F 88% 30.21 in - SE 15.0 mph - N/A   Unknown
11:30 PM 69.8 °F 66.2 °F 88% 30.21 in - SE 13.8 mph - N/A   Unknown